Location: ????????
(55.8351°N, 38.7040°E)
Time: 05:42:42
(UTC+00:00)

Cosmos 1733 - Pass Details

Date: 14 April 2024
Orbit: 457 x 470 km, 82.5° (Epoch: 22 May)

Event Time Altitude Azimuth Distance (km) Brightness Sun altitude
Rises 00:20:58 0° 348° (NNW) 2,557 7.2 -15.2°
Reaches altitude 10° 00:23:05 10° 349° (NNW) 1,672 6.2 -15.0°
Maximum altitude 00:26:44 86° 76° (ENE) 489 3.0 -14.6°
Drops below altitude 10° 00:30:22 10° 168° (SSE) 1,652 5.5 -14.3°
Enters shadow 00:30:39 - 168° (SSE) 1,770 5.6 -14.2°
